TimeMDT,TemperatureF,Dew PointF,Humidity,Sea Level PressureIn,VisibilityMPH,Wind Direction,Wind SpeedMPH,Gust SpeedMPH,PrecipitationIn,Events,Conditions,WindDirDegrees,DateUTC
12:53 AM,57.0,32.0,39,29.72,10.0,WSW,26.5,40.3,N/A,,Clear,240,2013-05-14 06:53:00
1:53 AM,55.9,32.0,40,29.73,10.0,WSW,27.6,36.8,N/A,,Clear,240,2013-05-14 07:53:00
2:53 AM,53.1,32.0,45,29.75,10.0,WSW,19.6,31.1,N/A,,Clear,240,2013-05-14 08:53:00
3:53 AM,51.1,33.1,50,29.77,10.0,WSW,16.1,25.3,N/A,,Clear,240,2013-05-14 09:53:00
4:53 AM,50.0,32.0,50,29.78,10.0,SW,21.9,29.9,N/A,,Clear,230,2013-05-14 10:53:00
5:53 AM,48.0,32.0,54,29.82,10.0,SW,17.3,-,N/A,,Clear,220,2013-05-14 11:53:00
6:53 AM,51.1,33.1,50,29.85,10.0,WSW,12.7,-,N/A,,Partly Cloudy,240,2013-05-14 12:53:00
7:53 AM,57.0,30.9,37,29.86,10.0,West,25.3,33.4,N/A,,Clear,280,2013-05-14 13:53:00
8:53 AM,59.0,28.9,32,29.88,10.0,West,25.3,34.5,N/A,,Clear,280,2013-05-14 14:53:00
9:53 AM,62.1,25.0,24,29.89,10.0,West,26.5,35.7,N/A,,Clear,280,2013-05-14 15:53:00
10:53 AM,64.0,26.1,24,29.90,10.0,WNW,19.6,25.3,N/A,,Clear,290,2013-05-14 16:53:00
11:53 AM,66.9,25.0,21,29.88,10.0,WSW,16.1,21.9,N/A,,Clear,240,2013-05-14 17:53:00
12:53 PM,69.1,24.1,18,29.87,10.0,West,16.1,24.2,N/A,,Clear,280,2013-05-14 18:53:00
1:53 PM,69.1,23.0,18,29.85,10.0,WSW,21.9,31.1,N/A,,Clear,250,2013-05-14 19:53:00
2:53 PM,69.1,21.9,17,29.85,10.0,West,19.6,25.3,N/A,,Clear,260,2013-05-14 20:53:00
3:53 PM,68.0,19.0,15,29.85,10.0,West,20.7,31.1,N/A,,Clear,260,2013-05-14 21:53:00
4:53 PM,68.0,17.1,14,29.84,10.0,WSW,23.0,28.8,N/A,,Clear,250,2013-05-14 22:53:00
5:53 PM,66.9,19.9,17,29.85,10.0,West,17.3,-,N/A,,Clear,280,2013-05-14 23:53:00
6:53 PM,64.9,18.0,16,29.85,10.0,West,17.3,-,N/A,,Clear,280,2013-05-15 00:53:00
7:53 PM,63.0,19.9,19,29.85,10.0,WNW,16.1,-,N/A,,Clear,290,2013-05-15 01:53:00
8:53 PM,60.1,19.9,21,29.87,10.0,WNW,13.8,-,N/A,,Clear,290,2013-05-15 02:53:00
9:53 PM,55.9,23.0,28,29.92,10.0,WNW,9.2,-,N/A,,Clear,290,2013-05-15 03:53:00
10:53 PM,55.9,25.0,30,29.94,10.0,WNW,9.2,-,N/A,,Clear,290,2013-05-15 04:53:00
11:53 PM,48.0,26.1,42,29.96,10.0,West,5.8,-,N/A,,Clear,270,2013-05-15 05:53:00